Tracking 19176 objects as of 26-May-2018
HD Live streaming from Space Station
objects crossing your sky now

COSMOS 2263

Track COSMOS 2263 now!
10-day predictions
COSMOS 2263 is classified as:


NORAD ID: 22802
Int'l Code: 1993-059A
Perigee: 839.3 km
Apogee: 872.1 km
Inclination: 70.9 °
Period: 101.9 minutes
Semi major axis: 7226 km
RCS: 7.1326 m2 (large)
Launch date: September 16, 1993
Source: Commonwealth of Independent States (former USSR) (CIS)
Launch site: TYURATAM MISSILE AND SPACE COMPLEX (TTMTR)
aabbcc
Your satellite tracking list
Your tracking list is empty




NASA's NSSDC Master Catalog

Two Line Element Set (TLE):
1 22802U 93059A   18146.09437991  .00000373  00000-0  22452-3 0  9993
2 22802  70.9269 320.8011 0022654  78.1728 282.1932 14.13168608273586
Source of the keplerian elements: AFSPC